Погода в Аксуате

Казахстан     47°45′41″N   82°48′21″E
темп.,
°C
ветер,
м/с
пор.,
м/с
влажн.,
%
обл.,
%
осадки,
мм/ч
давл.,
гПа
погр.,
м
2 марта, вт
вт200:00−5юв2294100 0.4 102361
03:00−4в2389100 0.0 102149
06:00−7с1296100 0.3 102158
09:00−5св1293100 0.3 102166
12:00−3в2390100 0.3 1020198
15:00−2всв3495100 0.0 1018172
18:00−4вюв2296100 0.0 101846
21:00−2ююз1479100 0.0 1018101
3 марта, ср
ср300:000зюз61467100 0.0 1018288
03:00−2з3471100 0.0 102054
06:00−5ююв1278100 0.0 102221
09:00−2зюз1273100 0.0 102371
12:00−1св3388100 0.0 1024186
15:00−2в338883 0.0 1025260
18:00−6вюв348657 0.0 102734
21:00−10юв22870 0.0 103021
4 марта, чт
чт400:00−13в22873 0.0 103021
03:00−16в119110 0.0 103120
06:00−17всв11965 0.0 103120
09:00−15в11870 0.0 103120
12:00−12св22871 0.0 1030149
15:00−11всв118813 0.0 1028165
18:00−16ссв0010019 0.0 102820
21:00−16ююв119768 0.0 102820
5 марта, пт
пт500:00−15юв1110081 0.0 102620
03:00−17вюв1110096 0.0 102320
06:00−15ююв119898 0.1 102020
09:00−11ссз1193100 0.2 102080
12:00−3в21184100 0.2 1023236
15:00+2з142269100 0.0 10281461
18:00−3сз588270 0.0 1033151
21:00−8ююв23790 0.0 103625
6 марта, сб
сб600:00−8юв33850 0.0 103622
03:00−11ю11830 0.0 103421
06:00−13св11901 0.0 103321
09:00−12с119529 0.0 103120
12:00−9с118938 0.0 1029183
15:00−7с118852 0.0 1026220
18:00−10з229241 0.0 102523
21:00−11з229220 0.0 102523